| time (UTC) | temp F | wind direction | speed knots | gust knots | rain 1hr in | rain 24hr in | rain mn in | humidity % | barometer mb |
| 20260503213036 | 73 | 167 | 0.9 | 3.5 | 0.00 | 0.00 | 0.00 | 51 | 1011.8 |
| 20260503211534 | 74 | 110 | 0.9 | 5.2 | 0.00 | 0.00 | 0.00 | 49 | 1011.9 |
| 20260503210031 | 73 | 98 | 1.7 | 3.5 | 0.00 | 0.00 | 0.00 | 51 | 1012.2 |
| 20260503204527 | 71 | 79 | 1.7 | 4.3 | 0.00 | 0.00 | 0.00 | 54 | 1012.4 |
| 20260503203029 | 69 | 131 | 0.9 | 3.5 | 0.00 | 0.00 | 0.00 | 57 | 1012.6 |
| 20260503201521 | 69 | 147 | 1.7 | 3.5 | 0.00 | 0.00 | 0.00 | 56 | 1012.9 |
| 20260503200021 | 69 | 105 | 2.6 | 5.2 | 0.00 | 0.00 | 0.00 | 55 | 1012.9 |
| 20260503194522 | 69 | 117 | 1.7 | 6.1 | 0.00 | 0.00 | 0.00 | 56 | 1013.0 |
| 20260503193019 | 69 | 113 | 2.6 | 5.2 | 0.00 | 0.00 | 0.00 | 55 | 1013.1 |
| 20260503191520 | 68 | 138 | 2.6 | 5.2 | 0.00 | 0.00 | 0.00 | 58 | 1013.4 |
| 20260503190016 | 67 | 119 | 2.6 | 6.1 | 0.00 | 0.00 | 0.00 | 59 | 1013.5 |
| 20260503184512 | 66 | 157 | 3.5 | 5.2 | 0.00 | 0.00 | 0.00 | 59 | 1013.7 |
| 20260503183011 | 64 | 153 | 4.3 | 7.0 | 0.00 | 0.00 | 0.00 | 62 | 1013.9 |
| 20260503181510 | 64 | 196 | 3.5 | 7.0 | 0.00 | 0.00 | 0.00 | 63 | 1014.0 |
| 20260503180017 | 64 | 190 | 3.5 | 8.7 | 0.00 | 0.00 | 0.00 | 64 | 1014.0 |
| 20260503174509 | 64 | 175 | 2.6 | 7.8 | 0.00 | 0.00 | 0.00 | 62 | 1014.0 |
| 20260503173009 | 65 | 184 | 3.5 | 6.1 | 0.00 | 0.00 | 0.00 | 60 | 1014.1 |
| 20260503171507 | 66 | 159 | 4.3 | 6.1 | 0.00 | 0.00 | 0.00 | 57 | 1014.1 |
| 20260503081533 | 59 | 272 | 0.9 | 3.5 | 0.00 | 0.00 | 0.00 | 67 | 1014.0 |
| 20260503071520 | 63 | 264 | 0.9 | 4.3 | 0.00 | 0.00 | 0.00 | 62 | 1013.8 |
| 20260503054515 | 62 | 263 | 1.7 | 3.5 | 0.00 | 0.00 | 0.00 | 69 | 1014.0 |
| 20260503053014 | 62 | 257 | 0.0 | 4.3 | 0.00 | 0.00 | 0.00 | 68 | 1014.0 |
| 20260503051510 | 63 | 253 | 0.9 | 3.5 | 0.00 | 0.00 | 0.00 | 67 | 1014.0 |
| 20260503050025 | 63 | 252 | 0.0 | 2.6 | 0.00 | 0.00 | 0.00 | 65 | 1013.8 |
| 20260503044510 | 64 | 252 | 0.0 | 2.6 | 0.00 | 0.00 | 0.00 | 65 | 1013.6 |
| 20260503043014 | 64 | 252 | 0.9 | 2.6 | 0.00 | 0.00 | 0.00 | 63 | 1013.6 |
| 20260503041510 | 65 | 252 | 1.7 | 2.6 | 0.00 | 0.00 | 0.00 | 62 | 1013.5 |
| 20260503040009 | 65 | 249 | 0.9 | 1.7 | 0.00 | 0.00 | 0.00 | 61 | 1013.4 |
| 20260503034508 | 66 | 249 | 0.0 | 0.9 | 0.00 | 0.00 | 0.00 | 58 | 1013.2 |
| 20260503033008 | 67 | 249 | 0.0 | 1.7 | 0.00 | 0.00 | 0.00 | 56 | 1013.0 |
| 20260503031507 | 68 | 249 | 0.9 | 3.5 | 0.00 | 0.00 | 0.00 | 53 | 1013.0 |
| 20260503030007 | 68 | 244 | 1.7 | 2.6 | 0.00 | 0.00 | 0.00 | 53 | 1013.0 |
| 20260503024508 | 70 | 56 | 0.9 | 2.6 | 0.00 | 0.00 | 0.00 | 57 | 1013.0 |
| 20260503023006 | 73 | 56 | 0.0 | 1.7 | 0.00 | 0.00 | 0.00 | 54 | 1013.0 |
| 20260503021507 | 74 | 56 | 0.0 | 2.6 | 0.00 | 0.00 | 0.00 | 50 | 1013.1 |
| 20260503020004 | 75 | 89 | 0.9 | 2.6 | 0.00 | 0.00 | 0.00 | 50 | 1013.2 |
| 20260503014504 | 76 | 89 | 0.0 | 1.7 | 0.00 | 0.00 | 0.00 | 49 | 1013.4 |
| 20260503013005 | 75 | 89 | 0.9 | 1.7 | 0.00 | 0.00 | 0.00 | 50 | 1013.4 |
| 20260503011605 | 75 | 89 | 0.9 | 4.3 | 0.00 | 0.00 | 0.00 | 51 | 1013.5 |
| 20260503010056 | 74 | 93 | 0.9 | 4.3 | 0.00 | 0.00 | 0.00 | 51 | 1013.6 |
| 20260503004554 | 72 | 148 | 0.9 | 2.6 | 0.00 | 0.00 | 0.00 | 55 | 1013.6 |
| 20260503003051 | 71 | 110 | 0.9 | 3.5 | 0.00 | 0.00 | 0.00 | 54 | 1013.7 |
| 20260503001558 | 70 | 171 | 2.6 | 5.2 | 0.00 | 0.00 | 0.00 | 53 | 1013.9 |
| 20260503000100 | 69 | 173 | 2.6 | 7.0 | 0.00 | 0.00 | 0.00 | 55 | 1014.1 |
| 20260502234548 | 70 | 159 | 3.5 | 7.0 | 0.00 | 0.00 | 0.00 | 56 | 1014.1 |
| 20260502233059 | 69 | 167 | 3.5 | 7.0 | 0.00 | 0.00 | 0.00 | 57 | 1014.4 |
| 20260502231558 | 69 | 184 | 3.5 | 6.1 | 0.00 | 0.00 | 0.00 | 58 | 1014.6 |
| 20260502230040 | 69 | 161 | 3.5 | 7.8 | 0.00 | 0.00 | 0.00 | 59 | 1014.7 |
| 20260502224537 | 68 | 192 | 4.3 | 7.0 | 0.00 | 0.00 | 0.00 | 60 | 1014.9 |
| 20260502223033 | 67 | 168 | 3.5 | 7.0 | 0.00 | 0.00 | 0.00 | 62 | 1015.1 |
| 20260502221529 | 65 | 157 | 3.5 | 7.0 | 0.00 | 0.00 | 0.00 | 65 | 1015.4 |
| 20260502220036 | 65 | 159 | 4.3 | 7.8 | 0.00 | 0.00 | 0.00 | 63 | 1015.6 |
| 20260502214526 | 65 | 141 | 3.5 | 6.1 | 0.00 | 0.00 | 0.00 | 65 | 1015.7 |